#timestamp,LO_Frequency,Hit,StdDev 
1594263615.6,286047000.1,N
1594263635.5,286047000.0,N
1594263655.3,286046999.7,N
1594263675.1,286047001.0,N
1594263695.9,286047000.5,N
1594263715.7,286047001.0,N
1594263735.6,286046998.3,N
1594263755.4,286047001.0,N
1594263775.2,286047002.7,N
1594263795.1,286047002.5,N
1594263796.0,286047002.5,N
1594263815.8,286047000.1,N
1594263835.7,286047000.6,N
1594263855.5,286047002.7,N
1594263875.3,286046999.7,N
1594263895.2,286047002.1,N
1594263915.0,286047003.1,N
1594263915.9,286047003.1,N
1594263935.8,286047001.8,N
1594263955.6,286047004.0,N
1594263975.4,286047002.2,N
1594263995.3,286047002.2,N
1594264015.1,286047002.2,N
1594264035.8,286047002.5,N
1594264055.7,286047002.2,N
1594264075.5,286047002.3,N
1594264095.4,286047001.7,N
1594264115.2,286047002.2,N
1594264135.0,286047002.0,N
1594264135.9,286047002.0,N
1594264155.8,286047002.0,N
1594264175.6,286047004.2,Y
1594264195.5,286046999.8,P
1594264215.3,286047002.4,N
1594264235.1,286047002.4,N
1594264255.9,286047000.4,N
1594264275.7,286047000.2,N
1594264295.5,286047001.6,N
1594264315.4,286047000.1,N
1594264335.2,286047000.8,N
1594264355.1,286047000.8,N
1594264356.0,286047000.8,N
1594264375.8,286047000.6,N
1594264395.7,286046999.8,N
1594264415.5,286047001.0,N
1594264435.3,286046998.1,N
1594264455.2,286047001.2,N
1594264475.0,286046998.2,N
1594264475.9,286046998.2,N
1594264495.8,286047001.2,N
1594264515.6,286046998.6,N
1594264535.4,286047001.2,N
1594264555.3,286046998.5,N
1594264575.1,286047001.2,N
1594264595.8,286047000.6,N
1594264615.7,286047000.6,N
1594264635.5,286047002.8,N
1594264655.4,286047000.9,N
1594264675.2,286047000.0,N
1594264695.0,286046999.7,N
1594264695.9,286046999.7,N
1594264715.8,286047000.5,N
1594264735.6,286047002.3,N
1594264755.5,286047002.7,N
1594264775.3,286047002.3,N
1594264795.1,286047000.9,N
1594264815.9,286047000.3,N
1594264835.7,286047000.7,N
1594264855.5,286046998.6,N
1594264875.4,286046999.1,N
1594264895.2,286046996.6,N
1594264915.1,286046999.4,N
1594264916.0,286046999.4,N
1594264935.8,286046999.2,N
1594264955.6,286046997.0,N
1594264975.5,286046997.7,N
1594264995.3,286046999.2,N
1594265015.2,286046997.1,N
1594265035.9,286046996.9,N
1594265055.7,286046996.9,N
1594265075.6,286046998.8,N
1594265095.4,286046998.8,N
1594265115.2,286046999.1,N
1594265135.1,286046999.4,N
1594265136.0,286046999.4,N
1594265155.8,286046999.5,N
1594265175.7,286046996.5,N
1594265195.5,286047002.6,N
1594265215.3,286046999.9,N
1594265235.2,286047001.2,N
1594265285.0,286046998.9,E
1594265295.9,286047000.7,N
1594265315.7,286046999.8,P
1594265335.5,286047000.0,N
1594265355.4,286047000.2,N
1594265375.2,286046999.8,N
1594265395.1,286046999.7,N
1594265396.0,286046999.7,N
1594265415.8,286047002.0,Y
1594265435.6,286046999.7,P
1594265455.5,286047001.5,P
1594265475.3,286047003.6,P
1594265495.2,286047001.7,N
1594265515.9,286047004.1,N
1594265535.7,286047003.5,N
1594265555.6,286047003.6,N
1594265575.4,286047003.4,N
1594265595.3,286047005.0,Y
1594265615.1,286047004.1,P
1594265616.0,286047004.1,P
1594265635.8,286047005.0,P
1594265655.7,286047007.6,Y
1594265675.5,286047000.0,P
1594265695.3,286047000.4,N
1594265715.2,286047000.8,N
1594265735.0,286046997.5,N
1594265735.9,286046997.5,N
1594265755.8,286046997.5,N
1594265775.6,286046994.9,N
1594265795.4,286046997.5,N
1594265815.3,286046997.0,N
1594265835.1,286046997.1,N
1594265855.9,286046998.6,N
1594265875.7,286046999.0,N
1594265895.5,286046996.9,N
1594265915.4,286046998.8,N
1594265935.2,286046999.5,N
1594265955.0,286046996.8,N
1594265956.0,286046996.8,N
1594265975.8,286046996.8,N
1594265995.6,286046997.8,N
1594266015.5,286046996.5,N
1594266035.3,286046999.2,N
1594266055.1,286046995.6,N
1594266075.9,286046996.4,N
1594266095.7,286046993.9,Y
1594266115.6,286046995.2,P
1594266135.4,286046996.4,N
1594266155.2,286046993.7,P
1594266175.1,286046997.5,N
1594266176.0,286046997.5,N
1594266195.8,286046997.3,N
1594266215.7,286046997.2,N
1594266235.5,286046993.3,Y
1594266255.3,286046999.2,P
1594266275.2,286046999.4,N
1594266295.0,286046998.8,N
1594266295.9,286046998.8,N
1594266315.7,286046997.4,N
1594266335.6,286046997.8,N
1594266355.4,286046998.1,N
1594266375.3,286046997.0,Y
1594266395.1,286046998.8,P
1594266415.8,286046998.6,P
1594266435.7,286047000.8,P
1594266455.5,286047002.8,N
1594266475.4,286047000.8,N
1594266495.2,286047000.9,N
1594266515.0,286047000.9,N
1594266515.9,286047000.9,N
1594266535.8,286046998.8,N
1594266555.6,286047001.0,N
1594266575.4,286047002.8,N
1594266595.3,286046999.9,N
1594266615.1,286047002.0,N
1594266635.9,286047002.6,N
1594266655.7,286047002.6,N
1594266675.5,286047002.4,N
1594266695.4,286047001.9,N
1594266715.2,286047002.5,N
1594266735.0,286047001.5,N
1594266736.0,286047001.5,N
1594266755.8,286047001.9,N
1594266775.6,286047002.1,N
1594266795.5,286047001.9,N
1594266815.3,286047002.7,N
1594266835.2,286047002.6,N
1594266855.9,286047002.4,N
1594266875.7,286047001.8,N
1594266895.6,286047004.4,Y
1594266915.4,286047000.5,P
1594266935.3,286047000.6,N
1594266955.1,286047000.9,N
1594266956.0,286047000.9,N
1594266975.8,286047001.1,Y
1594266995.7,286047001.0,P
1594267015.5,286046998.6,P
1594267035.4,286046998.3,N
1594267055.2,286046999.3,N
1594267075.0,286046999.1,N
1594267076.0,286046999.1,N
1594267095.8,286047000.9,N
1594267115.6,286047000.6,N
1594267135.5,286047001.2,N
1594267155.3,286046998.7,N
1594267175.1,286047000.9,N
1594267195.9,286047002.7,N
